Wind_Speed
29 33 34 33 32 31 30 29 30 31 32 33 32 31 30 29 28 28 29 29 28 27 27 27 27 26 25 25 25 25 25 23 22 23 25 26 25 25 24 22 21 20 19 18 16 16 15 15 14 13 14 14 14 13 12 12 11 10 10 9 9 8 8
32 32 35 34 33 32 31 30 30 31 32 33 33 32 31 30 30 30 30 30 29 28 27 27 28 26 24 24 25 26 26 25 23 22 24 26 27 26 25 23 22 21 21 19 18 17 17 16 15 14 14 14 14 13 13 12 12 11 10 9 8 8 8
34 33 33 34 32 31 32 31 32 32 32 32 32 32 32 31 30 30 30 30 30 29 28 27 27 26 25 24 24 25 26 26 25 23 23 25 25 25 24 24 23 22 22 21 20 19 19 17 17 16 15 15 15 14 13 12 12 11 11 10 9 8 8
32 34 32 32 31 31 32 32 33 33 32 31 30 30 30 29 28 28 29 29 30 30 29 28 28 27 26 25 24 25 26 26 26 25 24 24 24 23 23 23 24 24 24 24 22 22 21 20 19 18 17 16 16 15 14 13 12 12 11 11 10 10 9
28 32 33 32 32 32 33 34 34 34 33 31 30 28 28 27 27 27 28 29 30 30 29 28 28 28 27 26 24 24 24 25 26 25 24 24 24 24 23 22 22 23 24 25 24 24 23 22 21 20 19 18 17 17 16 15 14 13 12 12 12 11 11
27 31 33 31 31 31 31 32 33 34 33 31 30 28 27 27 27 27 27 30 31 30 29 29 29 29 28 26 25 23 23 24 25 25 25 25 25 25 24 22 21 21 22 24 25 25 25 24 23 22 21 19 19 18 18 17 15 15 14 13 13 12 12
25 29 30 28 28 28 29 30 31 32 32 31 30 28 27 27 26 26 27 29 31 30 31 31 31 30 29 28 27 25 24 24 24 25 25 25 26 26 25 24 22 21 21 22 23 24 25 25 25 24 24 23 21 20 19 18 17 16 16 15 14 13 12
21 25 27 24 23 24 25 28 29 31 32 32 32 30 28 28 26 26 27 28 30 31 32 32 32 31 30 30 29 27 26 25 24 25 25 26 26 27 26 26 25 23 23 23 22 23 25 25 25 25 25 26 25 23 21 20 20 19 17 16 15 14 13
21 23 22 19 19 20 21 24 26 29 30 32 32 30 29 28 27 27 27 27 28 31 32 32 32 32 31 31 30 29 28 27 26 25 26 26 27 27 26 26 26 25 25 25 23 23 24 24 25 25 25 26 27 26 25 22 21 21 20 18 17 15 14
24 24 20 17 19 19 18 22 25 28 29 30 30 30 29 28 27 28 28 27 27 30 32 33 33 33 32 32 31 30 30 30 28 27 27 27 27 27 26 26 26 27 27 26 26 25 24 24 25 26 26 26 26 27 27 25 24 22 21 20 18 17 16
29 27 22 19 20 20 19 21 23 26 27 29 30 29 29 28 28 28 28 27 27 28 30 32 34 35 34 33 32 31 32 32 31 30 29 28 27 26 26 26 26 27 27 27 28 27 26 25 25 26 27 27 26 26 26 26 25 24 22 21 20 18 18
32 30 23 20 20 20 18 16 18 21 23 26 29 29 28 27 27 29 29 27 26 26 29 31 34 35 35 34 33 33 33 32 32 32 31 29 28 26 26 26 26 27 28 28 28 28 28 27 26 26 27 27 27 26 25 25 25 24 23 22 21 19 18
34 35 32 28 26 25 24 22 20 20 21 23 25 26 26 26 26 27 28 27 26 25 26 29 32 34 35 35 35 34 33 33 33 32 32 30 29 27 27 26 26 27 27 28 29 29 29 29 28 27 26 26 27 27 27 26 25 25 24 24 23 21 20
36 40 41 39 37 37 36 35 33 30 28 27 26 25 24 23 24 25 26 27 26 25 25 27 29 32 34 35 35 34 33 32 32 32 32 31 30 29 28 27 27 27 27 28 29 29 29 29 28 28 27 26 26 27 27 28 28 26 25 25 24 23 22
36 40 43 42 41 41 41 40 39 38 36 34 32 30 26 23 22 23 24 26 27 27 27 27 28 30 32 33 34 33 32 32 32 32 32 32 32 31 30 29 28 28 28 28 29 29 29 29 29 29 29 28 27 26 27 29 30 29 27 26 25 24 24
39 41 42 42 41 41 42 42 40 39 38 37 37 36 34 30 26 25 24 24 25 27 28 29 29 29 31 33 32 31 31 32 33 33 33 33 33 32 31 31 30 29 29 29 29 29 29 29 29 29 29 29 28 28 28 29 30 30 29 28 27 26 25
34 39 41 42 43 42 42 43 42 41 39 38 38 38 38 37 35 32 30 27 25 26 27 29 30 30 31 32 32 30 30 31 32 32 33 33 33 32 32 31 31 31 30 30 29 29 29 29 30 29 29 29 28 28 29 29 28 28 29 29 29 28 28
25 31 35 37 40 42 43 44 44 42 40 40 39 39 39 39 37 36 35 31 27 25 26 28 29 30 30 30 31 31 30 30 30 31 31 31 32 32 32 32 32 32 32 31 30 29 29 30 30 30 29 28 28 29 29 28 28 27 27 28 28 29 29
16 21 26 30 34 37 39 41 43 44 43 41 39 38 39 39 37 34 31 29 28 27 27 28 28 30 30 29 30 30 30 30 30 29 29 30 30 31 32 32 32 32 32 31 30 30 30 30 30 30 30 29 28 28 28 28 27 27 27 27 27 28 29
10 10 9 13 20 29 34 34 36 40 42 41 38 36 38 39 37 32 28 26 26 26 26 27 29 30 31 31 30 30 29 28 29 29 29 29 30 31 32 33 33 32 31 31 31 31 31 30 31 31 30 30 28 28 27 27 27 27 27 28 28 28 28
4 4 2 5 2 14 24 26 28 32 36 39 37 34 34 36 33 27 26 27 26 25 25 26 30 32 33 33 31 29 28 28 28 29 29 29 30 30 31 32 32 32 31 31 31 31 30 30 30 31 31 30 29 28 27 26 26 27 28 29 29 29 29
9 5 4 4 5 2 9 15 19 23 28 32 31 29 29 31 28 24 25 28 28 27 25 25 28 32 35 35 33 31 29 28 28 29 28 28 29 29 29 30 30 31 31 31 31 30 30 30 30 30 31 31 31 29 27 25 25 26 27 28 29 29 29
20 13 9 7 4 2 3 2 8 15 23 26 26 27 27 27 28 28 27 28 29 28 25 24 25 28 33 36 36 34 32 29 29 30 30 30 30 29 29 28 29 30 30 31 30 29 29 30 29 29 30 30 31 31 28 26 25 25 26 27 28 29 30
23 22 13 9 7 4 1 4 3 8 16 20 21 25 24 21 24 30 32 32 32 29 26 26 26 26 29 35 38 37 35 32 31 32 32 32 31 30 30 30 29 29 30 30 30 29 28 28 28 29 30 30 31 31 29 27 25 25 26 26 27 29 30
23 25 22 14 11 9 6 5 7 7 10 12 14 18 19 16 17 23 29 32 33 31 30 30 29 27 27 32 36 37 36 34 33 33 34 34 33 32 31 31 30 30 30 31 30 29 28 28 28 29 29 30 30 30 30 29 27 26 26 26 27 29 30
25 27 27 22 17 15 12 10 9 8 10 11 11 12 13 14 13 16 22 27 30 31 32 32 31 30 29 31 33 35 35 35 35 36 36 36 35 34 33 32 32 32 32 31 31 30 30 29 28 28 28 29 30 30 30 29 28 27 27 27 28 29 30
30 30 29 27 24 21 18 15 13 10 10 10 10 10 11 12 13 16 20 24 27 29 32 32 32 33 33 33 33 34 35 36 37 38 38 37 38 37 36 35 34 33 33 33 32 32 32 30 29 28 28 28 29 30 30 29 29 28 28 28 29 29 30
34 33 32 31 31 28 23 20 18 15 14 12 12 12 13 14 15 18 21 24 26 28 31 32 33 34 35 35 35 35 36 37 39 39 39 40 40 41 40 38 37 35 35 34 33 33 33 32 31 29 28 28 29 29 29 29 29 29 28 29 29 29 30
36 36 35 35 36 34 29 24 21 20 20 19 16 14 15 16 17 20 23 25 26 28 30 32 33 34 35 35 35 36 37 39 40 41 41 41 42 42 41 39 38 37 37 36 35 34 34 33 33 32 30 29 29 28 28 29 29 29 29 29 29 30 30
37 38 38 37 37 36 33 29 26 24 24 24 21 18 17 18 19 22 24 25 28 29 31 32 33 34 36 35 35 36 38 40 42 42 42 42 42 43 42 40 39 38 37 37 38 37 36 35 35 34 32 30 29 29 28 29 29 30 30 30 30 30 30
37 38 39 39 39 39 37 34 31 28 27 28 26 22 20 20 21 23 24 25 28 31 32 33 33 34 36 37 37 38 40 42 44 44 44 43 43 44 43 41 39 38 37 38 39 39 38 36 36 36 35 33 31 29 28 28 29 29 30 30 30 31 31
38 38 39 40 40 41 41 39 37 33 31 32 30 26 22 21 22 24 25 27 30 32 34 34 35 35 36 37 38 38 39 42 44 44 44 43 43 44 43 41 40 39 38 38 38 39 39 38 38 38 38 36 33 31 29 29 29 29 29 30 30 31 31
37 37 37 37 38 39 40 42 43 41 37 35 34 30 26 24 24 25 26 28 31 34 35 36 36 36 37 37 37 38 39 40 41 42 43 44 43 43 42 41 39 39 39 39 39 39 39 39 39 39 39 37 35 33 31 30 30 30 30 29 29 30 30
35 36 36 36 36 37 38 40 43 45 43 38 37 35 33 29 27 27 29 30 32 34 37 38 37 37 37 37 37 37 37 38 39 40 42 43 43 41 40 39 38 38 39 40 39 39 39 38 39 39 39 38 38 37 34 32 30 29 30 29 28 28 28
33 34 35 36 36 37 37 37 39 43 46 44 41 40 38 34 30 29 31 33 33 35 39 40 39 39 38 38 38 37 37 37 38 39 40 41 41 40 39 38 38 38 38 39 39 38 37 37 38 39 40 40 40 39 37 34 30 26 26 27 27 27 27
32 32 34 35 36 37 38 37 37 39 43 45 45 43 42 39 35 32 33 35 35 36 39 41 41 41 40 39 38 38 37 37 37 38 39 39 39 39 39 38 37 36 36 37 37 37 37 37 38 38 39 41 41 40 37 34 29 25 25 25 26 26 26
29 30 31 33 35 37 37 37 37 37 40 43 46 47 44 42 39 35 35 37 38 37 38 40 42 43 42 41 40 39 38 38 37 38 39 39 39 40 40 39 37 36 34 34 35 35 36 37 38 38 38 40 39 38 37 34 30 28 27 26 25 25 26
27 27 28 30 33 35 36 36 35 36 38 40 44 47 47 45 42 39 38 39 40 40 40 41 43 44 43 43 42 40 40 40 39 40 40 41 43 43 42 40 39 36 34 34 34 35 36 36 37 38 38 38 37 36 36 34 32 30 29 28 27 27 28
Wind_Direction
217 216 215 217 219 219 220 221 222 220 217 219 220 218 216 213 208 205 206 209 210 208 207 211 216 217 214 212 215 216 217 215 210 208 211 214 217 219 217 214 212 215 217 215 211 211 213 213 211 207 202 199 196 195 194 191 188 190 192 185 174 170 167
221 218 217 218 218 219 220 222 223 221 219 220 221 220 217 214 210 206 205 207 211 211 209 210 215 218 216 213 214 216 217 218 214 209 210 214 218 220 219 216 213 214 217 219 216 214 215 216 215 214 209 205 203 200 199 198 196 194 196 195 187 180 176
225 221 219 219 218 218 219 219 221 221 222 222 222 220 218 215 212 208 206 207 209 211 210 209 212 217 218 216 214 214 217 219 217 212 210 214 220 222 221 218 215 214 217 220 220 217 216 216 216 216 214 210 208 208 205 205 205 203 200 200 196 193 190
224 223 223 222 219 219 219 219 219 220 222 223 223 221 219 217 214 210 208 208 209 211 210 207 209 213 216 218 216 214 215 218 219 216 213 214 220 224 223 220 217 217 217 219 220 219 218 216 215 216 217 214 212 212 211 210 212 212 208 204 201 201 201
219 222 224 223 221 219 218 218 218 219 221 221 222 222 221 220 216 213 210 209 210 211 211 210 209 210 213 216 217 215 214 217 219 219 216 215 219 223 225 222 219 219 220 220 220 220 219 218 216 216 218 217 215 214 214 212 213 216 215 211 206 204 204
217 218 220 222 221 218 216 216 217 219 220 220 220 221 221 220 219 217 214 211 210 209 210 212 211 210 211 213 214 214 214 216 218 220 220 218 220 223 226 225 223 221 222 223 223 222 221 220 218 217 218 220 217 214 214 214 213 215 216 214 212 208 208
220 216 216 218 219 217 214 214 216 218 220 220 220 221 222 222 221 220 217 213 210 209 209 210 210 209 211 211 212 213 213 214 216 218 220 220 221 223 226 227 227 225 225 226 227 227 226 223 219 217 217 220 220 217 215 215 216 216 216 216 215 213 212
214 211 213 216 215 214 213 213 214 216 218 219 220 221 223 223 222 220 218 215 212 211 210 210 210 210 210 211 211 212 213 214 216 217 220 221 221 222 224 226 228 228 229 229 229 229 230 229 226 221 217 217 220 221 218 216 216 217 218 218 218 219 218
205 202 208 215 210 206 209 213 214 213 216 217 218 220 222 223 223 221 218 216 213 212 210 210 211 211 212 212 211 211 211 213 215 217 219 221 222 222 222 223 225 227 230 232 232 231 231 231 230 228 223 219 218 220 221 220 218 218 219 219 219 222 223
198 192 199 207 202 199 203 210 213 214 216 218 217 218 220 222 224 223 221 217 213 212 210 210 211 212 213 214 213 212 211 211 213 216 219 221 222 222 222 222 223 225 227 230 233 234 232 230 230 230 229 225 220 219 221 222 222 221 221 221 221 222 224
198 189 194 201 199 199 201 206 212 216 219 222 222 220 220 221 223 223 222 219 214 212 210 210 211 211 213 214 214 214 214 212 212 213 217 220 222 223 223 223 223 223 225 227 229 233 234 231 229 227 227 227 225 222 220 221 224 226 225 225 225 225 226
202 198 199 201 199 198 201 206 211 216 221 225 225 223 220 220 222 223 223 222 218 215 212 210 210 211 212 214 215 215 216 215 215 214 214 218 221 223 223 224 224 223 224 226 227 230 233 234 232 228 225 224 224 225 223 221 222 224 226 227 229 230 231
207 209 211 211 210 209 211 213 213 215 220 223 225 224 221 220 221 223 225 225 223 219 214 212 211 212 214 215 216 217 217 217 218 217 216 216 218 221 223 224 225 225 225 226 227 229 231 234 235 233 229 224 221 222 223 223 222 222 222 223 226 230 234
209 214 216 215 215 217 218 219 220 221 221 220 222 224 223 221 222 225 228 229 229 225 219 214 213 213 215 217 218 219 220 219 220 221 221 219 218 218 221 223 225 226 226 227 228 229 231 233 235 236 234 230 225 222 221 223 224 224 222 221 222 226 231
208 213 215 215 216 218 220 221 222 222 221 219 220 221 223 222 222 226 229 232 233 231 226 220 216 216 216 218 220 220 221 222 222 223 223 223 221 219 220 221 223 225 226 227 229 230 231 233 235 236 236 234 231 227 224 222 223 224 224 223 223 225 228
208 212 213 214 215 216 219 220 220 219 218 218 217 218 221 223 224 227 231 233 234 233 231 228 225 224 222 221 220 220 220 221 223 224 224 224 224 222 221 221 222 224 226 228 229 230 231 233 234 235 236 235 234 231 229 227 224 224 224 225 225 226 228
196 207 210 213 214 214 217 219 220 219 219 219 218 217 219 222 225 228 231 235 238 235 233 233 231 230 227 224 220 219 219 221 222 224 225 225 225 224 223 223 223 224 226 227 228 230 231 233 234 234 235 235 235 234 232 231 229 227 226 226 227 228 229
166 188 199 206 212 215 218 219 220 220 220 222 223 221 221 221 224 227 229 231 237 239 237 236 235 232 227 223 221 220 218 218 219 222 223 224 225 224 223 224 224 224 225 226 227 228 229 232 234 235 235 235 235 235 234 233 232 231 230 230 230 231 232
135 166 182 191 200 208 213 217 220 220 221 223 225 226 227 224 222 226 229 229 232 239 240 238 238 234 227 223 222 218 215 213 214 217 219 220 222 222 223 224 225 225 225 226 226 227 228 231 234 236 236 235 234 234 235 235 234 233 233 233 233 233 233
103 127 157 173 188 197 201 206 212 217 220 223 225 229 233 231 225 222 225 226 225 230 235 236 237 234 228 226 224 219 218 220 220 218 218 219 220 220 221 223 225 226 226 227 227 226 227 228 231 235 237 238 236 235 235 234 234 234 234 234 234 234 235
102 98 59 41 111 194 198 200 205 211 217 220 223 226 232 235 232 225 223 224 222 222 225 228 232 232 229 228 228 225 224 227 225 220 219 221 221 221 221 222 223 226 227 228 228 228 227 228 230 234 237 239 240 238 236 233 231 232 233 233 234 235 236
267 283 296 340 22 119 201 215 219 218 216 217 221 227 231 234 233 225 221 223 223 222 221 223 228 231 230 229 230 231 230 228 225 220 217 219 222 222 221 221 222 224 227 229 230 230 229 228 229 232 235 239 241 241 238 232 228 228 230 232 233 234 236
259 271 302 319 324 50 94 206 230 225 217 213 218 227 231 231 228 224 222 223 225 225 223 224 224 225 228 229 229 230 231 229 228 224 218 218 220 221 221 221 222 223 226 229 231 231 230 229 229 231 233 236 240 242 240 234 227 225 227 229 231 233 235
262 257 272 309 301 281 90 111 148 205 212 213 219 226 228 228 228 229 228 226 226 226 224 224 223 221 224 227 227 228 229 228 229 227 223 220 219 221 222 223 224 224 225 228 231 233 233 232 231 231 233 235 238 240 241 238 232 226 224 225 228 232 235
274 260 258 273 281 270 249 195 159 157 185 204 218 226 227 227 227 231 230 226 225 224 222 223 225 225 225 226 226 228 229 227 227 227 226 223 221 222 223 224 225 226 227 228 231 233 235 235 234 232 232 234 237 239 241 240 236 230 225 225 227 231 234
276 269 260 262 270 272 266 242 206 179 183 199 215 225 230 228 220 217 219 219 221 223 223 224 227 230 231 230 229 229 228 226 226 228 228 226 224 224 225 225 227 228 229 229 230 232 235 237 236 234 233 234 236 238 239 240 238 234 230 227 227 229 232
272 274 267 261 263 268 269 259 241 218 204 211 227 236 237 231 219 211 212 216 221 227 228 228 229 231 232 231 231 231 229 226 226 229 230 228 227 227 227 228 228 228 229 231 231 232 235 237 237 237 236 235 236 238 238 239 239 238 235 232 230 229 229
268 273 271 263 259 261 264 261 252 239 230 231 238 241 240 233 223 218 220 223 229 235 236 234 232 231 230 230 230 231 230 227 228 230 231 230 231 230 229 228 229 229 231 232 233 233 235 237 239 239 238 237 238 238 238 239 239 238 237 236 234 232 232
266 268 269 264 260 258 260 261 257 250 246 244 243 244 244 237 226 222 224 227 232 237 241 241 239 236 233 230 226 226 226 226 227 232 234 235 235 233 230 228 229 230 232 233 234 234 235 237 239 240 240 239 238 238 239 239 239 238 237 238 238 237 236
266 268 269 269 266 262 260 261 261 258 253 249 246 247 247 242 234 227 225 227 232 235 239 242 243 244 241 234 226 222 221 220 222 228 234 237 237 235 231 229 229 231 232 234 235 235 236 237 239 240 240 240 239 239 238 238 239 239 238 239 240 241 241
265 268 270 272 271 268 264 262 261 262 260 254 249 251 251 247 241 232 228 229 233 235 237 239 241 244 246 242 234 226 221 220 223 228 233 237 238 236 233 232 232 233 232 233 235 235 236 237 238 240 241 241 242 241 239 238 238 239 239 240 240 242 244
264 266 268 270 272 271 268 265 263 265 266 258 251 253 255 251 246 239 233 232 235 236 238 240 240 242 245 247 245 239 232 227 228 231 233 236 237 236 235 235 236 236 235 235 234 235 236 237 238 239 240 242 243 243 242 241 239 238 239 240 240 241 243
263 264 265 268 271 271 270 268 265 266 268 262 254 256 259 255 250 246 240 237 237 238 239 240 242 243 244 247 249 249 245 238 233 233 235 235 235 234 235 236 237 238 238 236 235 234 235 236 238 239 239 241 243 244 244 244 242 240 238 238 239 241 242
263 263 263 266 269 270 271 270 267 265 266 263 257 258 262 259 253 250 247 243 241 240 240 241 242 244 245 247 248 250 251 247 241 237 237 237 236 236 235 236 237 238 238 237 236 236 236 236 238 238 239 240 242 244 245 245 245 243 240 238 239 242 244
264 263 261 262 265 268 269 271 270 265 263 262 260 260 262 261 256 251 249 248 245 242 241 241 243 244 245 247 247 248 250 250 247 243 240 239 239 240 240 240 240 240 239 238 237 237 237 238 238 239 240 240 240 242 244 246 248 250 248 243 240 239 242
264 262 260 259 260 263 266 268 270 267 263 262 262 261 261 262 259 253 250 249 247 245 242 242 243 244 244 245 247 248 248 249 249 247 244 243 243 243 243 243 242 240 239 238 237 237 238 239 240 241 241 240 239 240 242 245 248 251 251 247 241 235 236
263 261 259 256 255 256 260 263 265 266 264 262 261 261 261 263 261 256 251 250 250 248 246 245 244 244 244 244 246 248 248 247 247 247 246 246 246 247 247 246 245 243 241 239 238 238 239 241 244 245 243 241 239 239 240 241 241 242 242 241 238 231 229
263 260 256 254 252 251 253 256 259 261 262 261 260 259 260 262 262 259 254 252 251 250 249 248 247 247 246 245 244 246 247 247 245 245 246 246 246 247 248 249 249 247 244 241 240 240 242 245 250 250 246 242 240 238 237 236 235 235 235 233 231 227 225
Height
3151 3152 3153 3155 3157 3158 3159 3161 3163 3165 3167 3169 3171 3175 3178 3180 3182 3185 3187 3189 3192 3194 3196 3199 3200 3202 3204 3206 3208 3210 3212 3214 3216 3218 3220 3222 3223 3225 3227 3229 3230 3232 3233 3234 3236 3237 3238 3238 3239 3240 3240 3241 3242 3243 3243 3244 3245 3245 3246 3246 3246 3246 3246
3149 3150 3151 3153 3154 3156 3157 3159 3161 3163 3165 3167 3169 3172 3175 3178 3180 3182 3185 3187 3190 3192 3194 3197 3198 3200 3202 3204 3206 3208 3210 3212 3214 3217 3218 3220 3221 3223 3225 3227 3229 3231 3232 3233 3234 3235 3236 3237 3238 3239 3240 3241 3241 3242 3243 3243 3244 3245 3245 3245 3246 3246 3246
3146 3148 3149 3150 3152 3153 3155 3157 3159 3160 3162 3165 3167 3170 3173 3175 3178 3180 3183 3186 3188 3190 3192 3194 3196 3198 3200 3202 3204 3206 3208 3210 3212 3214 3217 3218 3220 3222 3224 3226 3227 3229 3230 3231 3233 3234 3235 3236 3237 3238 3239 3240 3241 3241 3242 3243 3243 3244 3245 3245 3245 3246 3246
3143 3145 3147 3148 3150 3152 3154 3155 3157 3158 3160 3163 3165 3168 3171 3174 3176 3179 3181 3184 3186 3188 3190 3192 3194 3196 3198 3200 3202 3204 3206 3208 3210 3212 3215 3217 3219 3220 3222 3224 3226 3227 3229 3230 3231 3232 3234 3235 3236 3237 3238 3239 3240 3240 3241 3242 3242 3243 3244 3244 3245 3245 3246
3140 3143 3145 3147 3148 3150 3152 3154 3155 3157 3159 3161 3163 3166 3169 3172 3174 3177 3179 3182 3184 3186 3189 3191 3193 3194 3196 3198 3200 3202 3204 3206 3208 3210 3213 3215 3217 3218 3220 3222 3224 3226 3227 3229 3230 3231 3232 3233 3235 3236 3237 3238 3239 3240 3240 3241 3241 3242 3243 3243 3244 3245 3245
3138 3140 3142 3144 3145 3147 3149 3152 3154 3156 3157 3159 3162 3165 3167 3170 3172 3174 3177 3179 3182 3185 3187 3189 3191 3192 3194 3195 3198 3200 3202 3204 3206 3208 3210 3213 3215 3216 3218 3220 3222 3224 3226 3227 3228 3229 3231 3232 3233 3235 3236 3237 3238 3239 3239 3240 3240 3241 3242 3242 3243 3243 3244
3135 3137 3140 3141 3143 3145 3147 3150 3152 3154 3156 3158 3161 3163 3165 3168 3170 3172 3174 3177 3180 3182 3184 3186 3188 3190 3192 3193 3195 3197 3200 3202 3204 3205 3207 3210 3212 3214 3216 3218 3220 3222 3224 3225 3226 3227 3229 3230 3232 3233 3234 3235 3236 3237 3238 3238 3239 3240 3240 3241 3241 3242 3243
3133 3135 3138 3140 3142 3144 3146 3148 3150 3153 3155 3156 3159 3161 3163 3165 3167 3169 3172 3174 3177 3179 3181 3183 3186 3188 3190 3191 3193 3195 3197 3200 3202 3204 3205 3207 3209 3211 3213 3216 3218 3220 3221 3222 3224 3225 3226 3228 3230 3231 3232 3233 3234 3235 3236 3237 3237 3238 3239 3239 3240 3241 3241
3131 3134 3136 3138 3140 3142 3144 3146 3148 3151 3153 3154 3156 3158 3160 3163 3165 3167 3169 3172 3174 3176 3179 3181 3183 3186 3188 3190 3191 3193 3195 3197 3199 3201 3203 3204 3206 3208 3211 3213 3215 3217 3219 3220 3222 3223 3224 3226 3227 3229 3230 3231 3232 3233 3234 3235 3236 3236 3237 3238 3239 3239 3240
3129 3132 3135 3138 3140 3141 3143 3145 3147 3149 3150 3152 3154 3156 3158 3160 3162 3165 3167 3169 3171 3174 3177 3179 3181 3183 3185 3187 3189 3191 3193 3194 3196 3198 3200 3202 3204 3206 3208 3211 3213 3215 3216 3218 3220 3221 3222 3224 3225 3226 3227 3229 3230 3231 3232 3233 3234 3234 3235 3236 3237 3238 3239
3127 3131 3134 3136 3138 3140 3142 3143 3145 3147 3148 3150 3152 3154 3156 3158 3160 3162 3165 3167 3169 3172 3175 3177 3179 3180 3182 3184 3187 3189 3191 3192 3193 3194 3197 3199 3201 3204 3206 3208 3210 3212 3214 3215 3217 3218 3220 3221 3223 3224 3225 3226 3228 3229 3231 3232 3232 3233 3234 3235 3236 3237 3237
3127 3131 3134 3136 3138 3140 3140 3141 3143 3144 3146 3148 3150 3152 3155 3157 3159 3161 3163 3165 3168 3170 3173 3175 3176 3178 3180 3182 3184 3186 3188 3190 3191 3192 3194 3196 3199 3202 3204 3205 3207 3209 3211 3213 3214 3216 3217 3218 3220 3221 3222 3224 3225 3227 3228 3230 3231 3231 3232 3233 3234 3235 3235
3125 3128 3131 3134 3136 3138 3139 3140 3141 3143 3144 3146 3149 3151 3153 3155 3157 3159 3161 3163 3166 3168 3171 3173 3175 3176 3178 3179 3181 3183 3185 3187 3189 3191 3192 3194 3196 3199 3201 3203 3205 3206 3208 3210 3212 3213 3214 3216 3217 3218 3220 3221 3222 3224 3225 3227 3228 3229 3230 3231 3231 3232 3233
3121 3123 3125 3128 3131 3133 3134 3136 3138 3141 3144 3146 3149 3150 3153 3154 3156 3158 3160 3162 3164 3166 3169 3171 3173 3174 3176 3177 3179 3181 3183 3185 3187 3189 3191 3193 3194 3196 3198 3201 3202 3204 3206 3207 3208 3210 3212 3213 3215 3216 3217 3219 3220 3221 3223 3224 3225 3226 3227 3228 3229 3230 3231
3118 3120 3122 3125 3127 3129 3131 3133 3136 3138 3140 3144 3147 3149 3151 3153 3155 3157 3158 3160 3162 3165 3167 3169 3171 3173 3174 3175 3177 3179 3181 3183 3185 3187 3189 3190 3192 3193 3195 3197 3200 3201 3203 3204 3205 3207 3209 3211 3213 3214 3215 3216 3218 3219 3220 3220 3221 3223 3224 3226 3227 3228 3229
3116 3118 3120 3123 3125 3126 3128 3130 3133 3135 3137 3139 3141 3144 3147 3150 3152 3155 3157 3159 3160 3163 3165 3167 3169 3171 3172 3173 3175 3177 3179 3181 3182 3183 3185 3187 3189 3191 3192 3194 3196 3198 3200 3201 3203 3205 3206 3208 3210 3211 3212 3214 3215 3216 3217 3218 3219 3220 3222 3223 3225 3226 3227
3113 3116 3119 3121 3123 3124 3125 3127 3130 3133 3135 3137 3138 3140 3143 3145 3148 3150 3153 3156 3159 3161 3163 3165 3167 3169 3170 3172 3174 3175 3176 3178 3179 3180 3182 3183 3186 3188 3190 3191 3193 3195 3197 3198 3200 3202 3203 3205 3206 3208 3209 3211 3212 3213 3214 3215 3217 3219 3220 3221 3222 3223 3224
3114 3115 3117 3120 3122 3123 3124 3125 3128 3130 3133 3135 3137 3139 3140 3142 3145 3147 3150 3153 3156 3158 3161 3163 3165 3166 3168 3170 3172 3173 3173 3174 3175 3176 3178 3180 3182 3184 3187 3188 3190 3191 3193 3195 3196 3198 3200 3201 3203 3205 3206 3208 3209 3210 3211 3213 3214 3216 3218 3219 3220 3221 3222
3114 3115 3116 3118 3120 3121 3122 3123 3125 3127 3130 3133 3136 3139 3139 3140 3141 3145 3148 3150 3152 3155 3157 3160 3162 3164 3166 3168 3169 3169 3170 3171 3172 3173 3175 3177 3179 3181 3183 3185 3186 3187 3189 3191 3193 3195 3196 3198 3200 3201 3203 3205 3206 3207 3209 3210 3212 3214 3215 3216 3217 3218 3219
3114 3114 3115 3116 3117 3118 3119 3121 3122 3125 3128 3131 3134 3136 3137 3139 3139 3141 3146 3149 3150 3151 3153 3156 3159 3162 3164 3165 3166 3167 3169 3170 3171 3172 3173 3175 3176 3178 3179 3181 3182 3184 3186 3188 3190 3191 3192 3194 3196 3198 3200 3201 3203 3205 3206 3208 3209 3211 3212 3213 3214 3215 3216
3113 3114 3115 3116 3116 3115 3117 3118 3120 3122 3125 3129 3132 3131 3132 3139 3141 3140 3143 3147 3148 3148 3150 3152 3155 3158 3160 3162 3163 3165 3167 3169 3170 3171 3172 3173 3175 3175 3176 3178 3179 3181 3183 3185 3186 3188 3189 3191 3193 3195 3197 3198 3200 3202 3204 3205 3207 3208 3209 3210 3211 3212 3213
3112 3114 3115 3116 3117 3116 3117 3118 3120 3121 3123 3128 3131 3129 3129 3136 3141 3140 3139 3142 3145 3147 3148 3149 3151 3154 3157 3159 3161 3163 3165 3167 3168 3168 3169 3171 3172 3174 3175 3175 3176 3178 3180 3182 3183 3185 3186 3188 3189 3191 3193 3195 3197 3199 3200 3203 3205 3206 3206 3207 3209 3209 3210
3111 3112 3114 3115 3116 3117 3119 3120 3120 3121 3122 3125 3128 3127 3127 3133 3137 3137 3138 3141 3143 3145 3146 3146 3148 3150 3153 3156 3158 3160 3162 3164 3165 3166 3167 3168 3169 3171 3172 3174 3175 3176 3177 3178 3180 3182 3183 3185 3186 3188 3190 3192 3194 3195 3197 3200 3202 3203 3204 3205 3206 3206 3207
3108 3110 3112 3113 3115 3117 3119 3120 3120 3120 3121 3124 3124 3124 3126 3130 3133 3134 3136 3139 3141 3142 3143 3143 3145 3147 3150 3152 3155 3157 3158 3160 3162 3163 3164 3165 3166 3168 3170 3171 3173 3174 3175 3175 3177 3179 3181 3182 3184 3185 3187 3188 3190 3192 3194 3197 3199 3201 3202 3203 3203 3204 3204
3107 3109 3110 3111 3113 3115 3117 3119 3120 3120 3122 3125 3125 3125 3126 3130 3131 3132 3133 3134 3137 3139 3140 3141 3143 3144 3146 3149 3152 3153 3155 3156 3158 3159 3161 3162 3164 3165 3167 3169 3170 3172 3173 3173 3174 3176 3178 3180 3181 3182 3184 3185 3187 3189 3191 3193 3196 3198 3199 3200 3201 3201 3201
3105 3106 3108 3109 3110 3112 3114 3116 3118 3119 3121 3123 3125 3126 3127 3128 3129 3130 3131 3132 3134 3136 3136 3138 3140 3142 3144 3146 3148 3149 3150 3152 3153 3154 3156 3159 3160 3162 3164 3166 3167 3169 3170 3171 3172 3173 3175 3177 3178 3179 3181 3182 3184 3186 3188 3190 3192 3194 3196 3197 3198 3198 3199
3102 3103 3105 3107 3108 3109 3110 3112 3114 3116 3118 3119 3121 3123 3124 3125 3126 3128 3129 3131 3132 3134 3134 3135 3136 3138 3140 3142 3144 3145 3146 3147 3148 3149 3152 3154 3156 3158 3160 3161 3163 3165 3167 3168 3169 3170 3172 3173 3175 3177 3178 3180 3181 3183 3185 3187 3189 3191 3193 3194 3195 3196 3196
3099 3100 3102 3104 3105 3105 3106 3108 3110 3112 3114 3116 3117 3119 3121 3123 3124 3126 3127 3128 3130 3131 3132 3132 3133 3134 3136 3138 3139 3140 3141 3143 3144 3145 3147 3150 3151 3153 3155 3157 3159 3161 3163 3165 3166 3167 3168 3170 3172 3174 3175 3177 3178 3179 3181 3183 3185 3187 3189 3191 3192 3193 3193
3095 3096 3098 3099 3101 3102 3103 3104 3106 3109 3111 3113 3114 3116 3118 3120 3122 3124 3125 3126 3128 3129 3129 3129 3130 3131 3132 3134 3135 3136 3137 3138 3140 3141 3143 3145 3146 3149 3151 3153 3155 3157 3159 3161 3162 3164 3165 3167 3169 3170 3172 3174 3175 3176 3178 3179 3181 3183 3185 3187 3188 3189 3189
3091 3092 3093 3095 3096 3098 3100 3101 3103 3105 3108 3111 3112 3113 3114 3116 3118 3120 3122 3123 3125 3125 3125 3125 3126 3127 3128 3129 3131 3133 3134 3135 3136 3137 3139 3140 3142 3144 3147 3149 3151 3153 3155 3157 3159 3160 3161 3163 3165 3166 3168 3170 3172 3173 3175 3176 3177 3179 3181 3182 3183 3184 3185
3089 3089 3090 3091 3093 3095 3097 3099 3100 3101 3104 3107 3109 3110 3111 3112 3114 3116 3118 3120 3120 3120 3121 3121 3122 3122 3123 3125 3127 3129 3131 3132 3132 3133 3135 3136 3137 3139 3142 3145 3147 3148 3150 3152 3154 3156 3157 3159 3161 3162 3164 3166 3168 3169 3171 3172 3174 3175 3177 3178 3179 3180 3181
3087 3087 3088 3088 3090 3092 3094 3097 3097 3097 3099 3102 3105 3106 3107 3109 3110 3112 3114 3115 3115 3115 3116 3117 3117 3118 3119 3120 3122 3124 3126 3128 3129 3130 3131 3132 3134 3136 3138 3140 3142 3144 3146 3148 3150 3152 3154 3155 3156 3158 3160 3162 3164 3165 3167 3169 3170 3171 3173 3174 3175 3176 3178
3083 3085 3085 3085 3086 3087 3090 3092 3094 3094 3094 3096 3099 3101 3103 3105 3106 3107 3109 3110 3110 3111 3112 3112 3113 3114 3115 3116 3117 3119 3120 3122 3124 3126 3127 3128 3130 3132 3134 3135 3137 3139 3140 3142 3145 3147 3149 3150 3152 3154 3156 3157 3159 3161 3163 3165 3166 3168 3169 3170 3172 3173 3174
3078 3080 3081 3081 3082 3083 3085 3087 3088 3089 3089 3091 3093 3095 3098 3100 3102 3103 3104 3105 3106 3106 3107 3108 3109 3110 3111 3112 3113 3114 3115 3117 3119 3121 3123 3124 3125 3127 3129 3131 3132 3134 3135 3138 3140 3142 3144 3146 3148 3149 3151 3153 3155 3157 3159 3161 3162 3163 3165 3167 3169 3170 3171
3072 3074 3076 3078 3079 3080 3081 3081 3083 3084 3084 3086 3088 3090 3093 3095 3097 3098 3099 3100 3101 3102 3102 3103 3105 3106 3107 3108 3109 3110 3111 3112 3114 3116 3118 3119 3121 3122 3124 3126 3128 3129 3131 3133 3135 3137 3140 3141 3142 3144 3147 3149 3151 3153 3154 3156 3158 3160 3163 3164 3166 3167 3168
3067 3069 3071 3073 3075 3076 3077 3077 3078 3078 3080 3081 3083 3085 3088 3090 3092 3094 3094 3094 3096 3097 3098 3099 3100 3102 3103 3104 3105 3106 3107 3108 3109 3111 3113 3115 3116 3118 3119 3121 3123 3125 3127 3128 3130 3132 3134 3135 3137 3139 3142 3143 3145 3147 3149 3152 3155 3158 3159 3160 3162 3164 3165
3064 3065 3067 3069 3071 3072 3073 3073 3073 3074 3075 3077 3079 3081 3083 3085 3087 3088 3089 3089 3090 3092 3093 3094 3095 3096 3099 3100 3101 3102 3103 3104 3105 3106 3108 3110 3112 3113 3114 3116 3119 3121 3122 3124 3126 3127 3129 3130 3131 3134 3136 3138 3140 3143 3145 3147 3150 3152 3154 3155 3157 3159 3161
3060 3062 3063 3064 3066 3067 3068 3068 3069 3069 3071 3073 3075 3076 3078 3079 3081 3082 3083 3084 3086 3087 3088 3089 3090 3091 3093 3095 3096 3097 3098 3099 3101 3102 3103 3104 3105 3107 3109 3112 3114 3116 3118 3119 3121 3122 3124 3125 3127 3128 3130 3133 3135 3138 3140 3142 3145 3146 3148 3150 3152 3154 3156